| time (UTC) | temp C | wind direction | speed KPH | gust KPH | rain 1hr cm | rain 24hr cm | rain mn cm | humidity % | barometer mb |
| 20260507212003 | 23 | 168 | 4.8 | 14.5 | 0.00 | 0.05 | 0.00 | 9 | 1017.2 |
| 20260507211516 | 22 | 42 | 3.2 | 14.5 | 0.00 | 0.05 | 0.00 | 10 | 1017.2 |
| 20260507211006 | 22 | 25 | 3.2 | 14.5 | 0.00 | 0.05 | 0.00 | 9 | 1017.2 |
| 20260507210509 | 22 | 300 | 3.2 | 14.5 | 0.00 | 0.05 | 0.00 | 9 | 1017.2 |
| 20260507210019 | 22 | 238 | 3.2 | 9.7 | 0.00 | 0.05 | 0.00 | 9 | 1017.4 |
| 20260507205507 | 22 | 265 | 3.2 | 12.9 | 0.00 | 0.05 | 0.00 | 9 | 1017.4 |
| 20260507205009 | 22 | 27 | 4.8 | 12.9 | 0.00 | 0.05 | 0.00 | 9 | 1017.4 |
| 20260507204525 | 22 | 70 | 4.8 | 12.9 | 0.00 | 0.05 | 0.00 | 9 | 1017.6 |
| 20260507204009 | 22 | 277 | 3.2 | 16.1 | 0.00 | 0.05 | 0.00 | 9 | 1017.7 |
| 20260507203504 | 22 | 220 | 4.8 | 16.1 | 0.00 | 0.05 | 0.00 | 9 | 1017.6 |
| 20260507203008 | 22 | 314 | 3.2 | 11.3 | 0.00 | 0.05 | 0.00 | 9 | 1017.6 |
| 20260507202506 | 22 | 8 | 4.8 | 14.5 | 0.00 | 0.05 | 0.00 | 9 | 1017.7 |
| 20260507202004 | 22 | 274 | 3.2 | 14.5 | 0.00 | 0.05 | 0.00 | 10 | 1017.8 |
| 20260507201510 | 22 | 340 | 4.8 | 12.9 | 0.00 | 0.05 | 0.00 | 9 | 1017.6 |
| 20260507201005 | 22 | 183 | 3.2 | 12.9 | 0.00 | 0.05 | 0.00 | 10 | 1017.8 |
| 20260507200504 | 22 | 131 | 3.2 | 12.9 | 0.00 | 0.05 | 0.00 | 10 | 1017.9 |
| 20260507200027 | 23 | 238 | 3.2 | 11.3 | 0.00 | 0.05 | 0.00 | 9 | 1017.8 |
| 20260507195506 | 22 | 356 | 1.6 | 9.7 | 0.00 | 0.05 | 0.00 | 9 | 1017.7 |
| 20260507195007 | 22 | 72 | 3.2 | 16.1 | 0.00 | 0.05 | 0.00 | 9 | 1017.9 |
| 20260507194524 | 22 | 168 | 4.8 | 16.1 | 0.00 | 0.05 | 0.00 | 8 | 1017.9 |
| 20260507194007 | 23 | 145 | 4.8 | 11.3 | 0.00 | 0.05 | 0.00 | 9 | 1018.0 |
| 20260507193506 | 23 | 137 | 3.2 | 14.5 | 0.00 | 0.05 | 0.00 | 9 | 1018.1 |
| 20260507193032 | 22 | 109 | 4.8 | 14.5 | 0.00 | 0.05 | 0.00 | 9 | 1018.3 |
| 20260507192508 | 22 | 37 | 1.6 | 11.3 | 0.00 | 0.05 | 0.00 | 8 | 1018.3 |
| 20260507192007 | 22 | 51 | 3.2 | 14.5 | 0.00 | 0.05 | 0.00 | 10 | 1018.4 |
| 20260507191508 | 22 | 206 | 4.8 | 14.5 | 0.00 | 0.05 | 0.00 | 8 | 1018.3 |
| 20260507191004 | 22 | 195 | 3.2 | 9.7 | 0.00 | 0.05 | 0.00 | 10 | 1018.5 |
| 20260507190505 | 21 | 261 | 3.2 | 9.7 | 0.00 | 0.05 | 0.00 | 11 | 1018.6 |
| 20260507190016 | 21 | 11 | 4.8 | 8.0 | 0.00 | 0.05 | 0.00 | 12 | 1018.6 |
| 20260507185506 | 21 | 351 | 3.2 | 11.3 | 0.00 | 0.05 | 0.00 | 13 | 1018.5 |
| 20260507185006 | 21 | 179 | 3.2 | 14.5 | 0.00 | 0.05 | 0.00 | 13 | 1018.6 |
| 20260507184519 | 20 | 157 | 6.4 | 14.5 | 0.00 | 0.05 | 0.00 | 13 | 1018.7 |
| 20260507184006 | 20 | 87 | 3.2 | 11.3 | 0.00 | 0.05 | 0.00 | 16 | 1018.8 |
| 20260507183508 | 20 | 44 | 4.8 | 11.3 | 0.00 | 0.05 | 0.00 | 15 | 1018.9 |
| 20260507183034 | 20 | 73 | 1.6 | 12.9 | 0.00 | 0.05 | 0.00 | 16 | 1018.9 |
| 20260507182507 | 19 | 131 | 3.2 | 12.9 | 0.00 | 0.05 | 0.00 | 18 | 1019.0 |
| 20260507182016 | 20 | 125 | 3.2 | 12.9 | 0.00 | 0.05 | 0.00 | 19 | 1019.1 |
| 20260507181527 | 19 | 117 | 3.2 | 8.0 | 0.00 | 0.05 | 0.00 | 17 | 1019.2 |
| 20260507181008 | 19 | 94 | 4.8 | 9.7 | 0.00 | 0.05 | 0.00 | 21 | 1019.4 |
| 20260507180508 | 18 | 117 | 1.6 | 12.9 | 0.00 | 0.05 | 0.00 | 22 | 1019.5 |
| 20260507180011 | 18 | 75 | 4.8 | 12.9 | 0.00 | 0.05 | 0.00 | 23 | 1019.6 |
| 20260507175507 | 18 | 27 | 3.2 | 8.0 | 0.00 | 0.05 | 0.00 | 21 | 1019.8 |
| 20260507175006 | 18 | 62 | 4.8 | 8.0 | 0.00 | 0.05 | 0.00 | 22 | 1020.0 |
| 20260507174518 | 18 | 228 | 1.6 | 8.0 | 0.00 | 0.05 | 0.00 | 22 | 1020.1 |
| 20260507174004 | 18 | 129 | 1.6 | 6.4 | 0.00 | 0.05 | 0.00 | 23 | 1020.2 |
| 20260507173513 | 18 | 105 | 1.6 | 8.0 | 0.00 | 0.05 | 0.00 | 24 | 1020.3 |
| 20260507173020 | 17 | 149 | 1.6 | 8.0 | 0.00 | 0.05 | 0.00 | 25 | 1020.3 |
| 20260507172508 | 17 | 129 | 3.2 | 8.0 | 0.00 | 0.05 | 0.00 | 25 | 1020.4 |
| 20260507172008 | 17 | 269 | 1.6 | 6.4 | 0.00 | 0.05 | 0.00 | 26 | 1020.5 |
| 20260507171525 | 16 | 84 | 1.6 | 6.4 | 0.00 | 0.05 | 0.00 | 26 | 1020.6 |
| 20260507171008 | 16 | 161 | 1.6 | 6.4 | 0.00 | 0.05 | 0.00 | 26 | 1020.6 |
| 20260507170510 | 16 | 293 | 1.6 | 8.0 | 0.00 | 0.05 | 0.00 | 27 | 1020.7 |
| 20260507170028 | 16 | 31 | 3.2 | 8.0 | 0.00 | 0.05 | 0.00 | 29 | 1020.7 |
| 20260507165509 | 16 | 117 | 3.2 | 8.0 | 0.00 | 0.05 | 0.00 | 30 | 1020.7 |
| 20260507165011 | 15 | 122 | 1.6 | 6.4 | 0.00 | 0.05 | 0.00 | 29 | 1020.8 |
| 20260507164515 | 15 | 94 | 3.2 | 6.4 | 0.00 | 0.05 | 0.00 | 31 | 1020.8 |
| 20260507164006 | 15 | 93 | 1.6 | 4.8 | 0.00 | 0.05 | 0.00 | 31 | 1020.9 |
| 20260507163506 | 14 | 69 | 1.6 | 6.4 | 0.00 | 0.05 | 0.00 | 33 | 1020.9 |
| 20260507163019 | 14 | 124 | 1.6 | 8.0 | 0.00 | 0.05 | 0.00 | 32 | 1021.0 |
| 20260507162503 | 13 | 148 | 3.2 | 9.7 | 0.00 | 0.05 | 0.00 | 34 | 1021.0 |
| 20260507162003 | 13 | 6 | 3.2 | 9.7 | 0.00 | 0.05 | 0.00 | 36 | 1021.1 |
| 20260507161504 | 13 | 337 | 1.6 | 4.8 | 0.00 | 0.05 | 0.00 | 36 | 1021.1 |
| 20260507161003 | 13 | 60 | 1.6 | 9.7 | 0.00 | 0.05 | 0.00 | 37 | 1021.2 |
| 20260507160506 | 13 | 135 | 1.6 | 9.7 | 0.00 | 0.05 | 0.00 | 37 | 1021.2 |
| 20260507160006 | 12 | 228 | 1.6 | 6.4 | 0.00 | 0.05 | 0.00 | 37 | 1021.3 |
| 20260507155502 | 12 | 135 | 1.6 | 6.4 | 0.00 | 0.05 | 0.00 | 37 | 1021.3 |
| 20260507155004 | 12 | 203 | 1.6 | 6.4 | 0.00 | 0.05 | 0.00 | 39 | 1021.3 |
| 20260507154508 | 12 | 198 | 1.6 | 4.8 | 0.00 | 0.05 | 0.00 | 39 | 1021.3 |
| 20260507154004 | 11 | 86 | 3.2 | 4.8 | 0.00 | 0.05 | 0.00 | 39 | 1021.5 |
| 20260507153504 | 11 | 64 | 1.6 | 4.8 | 0.00 | 0.05 | 0.00 | 39 | 1021.5 |
| 20260507153016 | 11 | 127 | 1.6 | 4.8 | 0.00 | 0.05 | 0.00 | 40 | 1021.6 |
| 20260507152507 | 10 | 238 | 1.6 | 3.2 | 0.00 | 0.05 | 0.00 | 40 | 1021.6 |
| 20260507152005 | 10 | 130 | 1.6 | 4.8 | 0.00 | 0.05 | 0.00 | 41 | 1021.6 |
| 20260507151535 | 10 | 76 | 1.6 | 4.8 | 0.00 | 0.05 | 0.00 | 40 | 1021.6 |
| 20260507151003 | 10 | 136 | 1.6 | 6.4 | 0.00 | 0.05 | 0.00 | 41 | 1021.7 |
| 20260507150503 | 10 | 155 | 0.0 | 6.4 | 0.00 | 0.05 | 0.00 | 42 | 1021.8 |
| 20260507150005 | 9 | 105 | 0.0 | 3.2 | 0.00 | 0.05 | 0.00 | 41 | 1021.7 |
| 20260507145508 | 9 | 181 | 0.0 | 4.8 | 0.00 | 0.05 | 0.00 | 42 | 1021.8 |
| 20260507145004 | 8 | 136 | 1.6 | 4.8 | 0.00 | 0.05 | 0.00 | 42 | 1021.8 |
| 20260507144509 | 8 | 60 | 1.6 | 3.2 | 0.00 | 0.05 | 0.00 | 42 | 1021.9 |
| 20260507144011 | 7 | 135 | 1.6 | 3.2 | 0.00 | 0.05 | 0.00 | 43 | 1021.9 |
| 20260507143502 | 7 | 95 | 1.6 | 4.8 | 0.00 | 0.05 | 0.00 | 46 | 1021.9 |
| 20260507143010 | 7 | 77 | 1.6 | 4.8 | 0.00 | 0.05 | 0.00 | 47 | 1021.9 |
| 20260507142504 | 6 | 85 | 0.0 | 3.2 | 0.00 | 0.05 | 0.00 | 48 | 1022.0 |
| 20260507142003 | 6 | 328 | 1.6 | 3.2 | 0.00 | 0.05 | 0.00 | 49 | 1022.1 |
| 20260507141518 | 6 | 359 | 1.6 | 6.4 | 0.00 | 0.05 | 0.00 | 51 | 1022.1 |
| 20260507141007 | 5 | 86 | 0.0 | 6.4 | 0.00 | 0.05 | 0.00 | 52 | 1022.1 |
| 20260507140509 | 5 | 108 | 0.0 | 4.8 | 0.00 | 0.05 | 0.00 | 53 | 1022.2 |
| 20260507140022 | 4 | 316 | 1.6 | 4.8 | 0.00 | 0.05 | 0.00 | 55 | 1022.1 |
| 20260507135508 | 3 | 307 | 0.0 | 4.8 | 0.00 | 0.05 | 0.00 | 55 | 1022.2 |
| 20260507135006 | 3 | 59 | 1.6 | 4.8 | 0.00 | 0.05 | 0.00 | 56 | 1022.2 |
| 20260507134516 | 3 | 4 | 0.0 | 8.0 | 0.00 | 0.05 | 0.00 | 59 | 1022.3 |
| 20260507134003 | 2 | 91 | 1.6 | 8.0 | 0.00 | 0.05 | 0.00 | 60 | 1022.2 |
| 20260507133505 | 2 | 20 | 0.0 | 3.2 | 0.00 | 0.05 | 0.00 | 63 | 1022.3 |
| 20260507133010 | 2 | 109 | 0.0 | 3.2 | 0.00 | 0.05 | 0.00 | 65 | 1022.2 |
| 20260507132507 | 2 | 23 | 0.0 | 4.8 | 0.00 | 0.05 | 0.00 | 66 | 1022.2 |
| 20260507132010 | 1 | 334 | 0.0 | 4.8 | 0.00 | 0.05 | 0.00 | 67 | 1022.3 |
| 20260507131519 | 1 | 329 | 0.0 | 3.2 | 0.00 | 0.05 | 0.00 | 69 | 1022.4 |
| 20260507131003 | 1 | 73 | 0.0 | 6.4 | 0.00 | 0.05 | 0.00 | 70 | 1022.4 |
| 20260507130506 | 1 | 347 | 0.0 | 6.4 | 0.00 | 0.05 | 0.00 | 72 | 1022.4 |
| 20260507130016 | 0 | 13 | 0.0 | 4.8 | 0.00 | 0.05 | 0.00 | 74 | 1022.4 |
| 20260507125509 | 0 | 67 | 0.0 | 3.2 | 0.00 | 0.05 | 0.00 | 76 | 1022.4 |
| 20260507125012 | 0 | 108 | 0.0 | 3.2 | 0.00 | 0.05 | 0.00 | 80 | 1022.4 |
| 20260507124524 | -1 | 65 | 0.0 | 1.6 | 0.00 | 0.05 | 0.00 | 84 | 1022.4 |
| 20260507124009 | -2 | 87 | 0.0 | 1.6 | 0.00 | 0.05 | 0.00 | 85 | 1022.4 |
| 20260507123511 | -2 | 84 | 0.0 | 1.6 | 0.00 | 0.05 | 0.00 | 86 | 1022.5 |
| 20260507123016 | -2 | 65 | 0.0 | 1.6 | 0.00 | 0.05 | 0.00 | 86 | 1022.5 |
| 20260507122504 | -2 | 22 | 0.0 | 1.6 | 0.00 | 0.05 | 0.00 | 86 | 1022.5 |
| 20260507122003 | -2 | 38 | 0.0 | 1.6 | 0.00 | 0.05 | 0.00 | 86 | 1022.4 |
| 20260507121511 | -2 | 356 | 0.0 | 3.2 | 0.00 | 0.05 | 0.00 | 86 | 1022.7 |
| 20260507121004 | -2 | 349 | 0.0 | 3.2 | 0.00 | 0.05 | 0.00 | 87 | 1022.7 |
| 20260507120507 | -3 | 347 | 0.0 | 1.6 | 0.00 | 0.05 | 0.00 | 88 | 1022.7 |
| 20260507120014 | -3 | 94 | 0.0 | 0.0 | 0.00 | 0.05 | 0.00 | 87 | 1022.7 |
| 20260507115506 | -3 | 94 | 0.0 | 0.0 | 0.00 | 0.05 | 0.00 | 87 | 1022.7 |
| 20260507115007 | -2 | 94 | 0.0 | 0.0 | 0.00 | 0.05 | 0.00 | 87 | 1022.7 |
| 20260507114526 | -2 | 94 | 0.0 | 1.6 | 0.00 | 0.05 | 0.00 | 86 | 1022.6 |
| 20260507114007 | -2 | 94 | 0.0 | 1.6 | 0.00 | 0.05 | 0.00 | 87 | 1022.6 |
| 20260507113509 | -2 | 94 | 0.0 | 1.6 | 0.00 | 0.05 | 0.00 | 87 | 1022.5 |
| 20260507113026 | -2 | 95 | 0.0 | 1.6 | 0.00 | 0.05 | 0.00 | 88 | 1022.6 |
| 20260507112508 | -2 | 335 | 0.0 | 1.6 | 0.00 | 0.05 | 0.00 | 88 | 1022.5 |
| 20260507112013 | -2 | 340 | 0.0 | 1.6 | 0.00 | 0.05 | 0.00 | 89 | 1022.5 |
| 20260507111528 | -3 | 323 | 0.0 | 0.0 | 0.00 | 0.05 | 0.00 | 89 | 1022.7 |
| 20260507111003 | -2 | 321 | 0.0 | 0.0 | 0.00 | 0.05 | 0.00 | 88 | 1022.7 |
| 20260507110502 | -2 | 321 | 0.0 | 0.0 | 0.00 | 0.05 | 0.00 | 88 | 1022.8 |
| 20260507110013 | -2 | 321 | 0.0 | 0.0 | 0.00 | 0.05 | 0.00 | 88 | 1022.8 |
| 20260507105503 | -2 | 321 | 0.0 | 0.0 | 0.00 | 0.05 | 0.00 | 88 | 1022.8 |
| 20260507105003 | -2 | 321 | 0.0 | 0.0 | 0.00 | 0.05 | 0.00 | 88 | 1022.7 |
| 20260507104517 | -2 | 321 | 0.0 | 0.0 | 0.00 | 0.05 | 0.00 | 88 | 1022.7 |
| 20260507104007 | -2 | 321 | 0.0 | 1.6 | 0.00 | 0.05 | 0.00 | 88 | 1022.7 |
| 20260507103507 | -2 | 321 | 0.0 | 1.6 | 0.00 | 0.05 | 0.00 | 89 | 1022.8 |
| 20260507103026 | -2 | 321 | 0.0 | 0.0 | 0.00 | 0.05 | 0.00 | 89 | 1022.7 |
| 20260507102506 | -2 | 320 | 0.0 | 0.0 | 0.00 | 0.05 | 0.00 | 89 | 1022.7 |
| 20260507102010 | -2 | 320 | 0.0 | 0.0 | 0.00 | 0.05 | 0.00 | 88 | 1022.7 |
| 20260507101524 | -2 | 320 | 0.0 | 0.0 | 0.00 | 0.05 | 0.00 | 88 | 1022.8 |
| 20260507101014 | -2 | 320 | 0.0 | 0.0 | 0.00 | 0.05 | 0.00 | 89 | 1022.8 |
| 20260507100509 | -2 | 320 | 0.0 | 0.0 | 0.00 | 0.05 | 0.00 | 89 | 1022.8 |
| 20260507100028 | -2 | 320 | 0.0 | 0.0 | 0.00 | 0.05 | 0.00 | 88 | 1022.8 |
| 20260507095509 | -2 | 320 | 0.0 | 1.6 | 0.00 | 0.05 | 0.00 | 88 | 1022.8 |
| 20260507095008 | -2 | 320 | 0.0 | 1.6 | 0.00 | 0.05 | 0.00 | 88 | 1022.8 |
| 20260507094513 | -2 | 314 | 0.0 | 1.6 | 0.00 | 0.05 | 0.00 | 88 | 1022.8 |
| 20260507094004 | -2 | 329 | 0.0 | 1.6 | 0.00 | 0.05 | 0.00 | 88 | 1022.8 |
| 20260507093507 | -2 | 328 | 0.0 | 1.6 | 0.00 | 0.05 | 0.00 | 88 | 1022.8 |
| 20260507093017 | -2 | 312 | 0.0 | 0.0 | 0.00 | 0.05 | 0.00 | 88 | 1022.8 |
| 20260507092505 | -2 | 308 | 0.0 | 0.0 | 0.00 | 0.05 | 0.00 | 88 | 1022.9 |
| 20260507092008 | -2 | 309 | 0.0 | 1.6 | 0.00 | 0.05 | 0.00 | 88 | 1022.9 |
| 20260507091524 | -2 | 308 | 0.0 | 1.6 | 0.00 | 0.05 | 0.00 | 88 | 1022.9 |
| 20260507091008 | -2 | 37 | 0.0 | 1.6 | 0.00 | 0.05 | 0.00 | 89 | 1023.0 |
| 20260507090507 | -2 | 351 | 0.0 | 1.6 | 0.00 | 0.05 | 0.00 | 87 | 1023.1 |
| 20260507090035 | -2 | 340 | 0.0 | 1.6 | 0.00 | 0.05 | 0.00 | 87 | 1023.1 |
| 20260507085508 | -2 | 357 | 0.0 | 1.6 | 0.00 | 0.05 | 0.00 | 87 | 1023.1 |
| 20260507085010 | -2 | 327 | 0.0 | 1.6 | 0.00 | 0.05 | 0.00 | 87 | 1023.1 |
| 20260507084534 | -2 | 331 | 0.0 | 1.6 | 0.00 | 0.05 | 0.00 | 87 | 1023.1 |
| 20260507084009 | -2 | 322 | 0.0 | 1.6 | 0.00 | 0.05 | 0.00 | 88 | 1023.1 |
| 20260507083511 | -2 | 322 | 0.0 | 1.6 | 0.00 | 0.05 | 0.00 | 89 | 1023.1 |
| 20260507083031 | -2 | 330 | 0.0 | 0.0 | 0.00 | 0.05 | 0.00 | 89 | 1023.1 |
| 20260507082504 | -2 | 330 | 0.0 | 0.0 | 0.00 | 0.05 | 0.00 | 87 | 1023.1 |
| 20260507082006 | -2 | 330 | 0.0 | 1.6 | 0.00 | 0.05 | 0.00 | 88 | 1023.0 |
| 20260507081519 | -2 | 330 | 0.0 | 1.6 | 0.00 | 0.05 | 0.00 | 88 | 1023.0 |
| 20260507081005 | -2 | 330 | 0.0 | 1.6 | 0.00 | 0.05 | 0.00 | 87 | 1023.0 |
| 20260507080512 | -2 | 330 | 0.0 | 1.6 | 0.00 | 0.05 | 0.00 | 88 | 1022.9 |
| 20260507080024 | -2 | 331 | 0.0 | 1.6 | 0.00 | 0.05 | 0.00 | 88 | 1022.8 |
| 20260507075507 | -2 | 327 | 0.0 | 1.6 | 0.00 | 0.05 | 0.00 | 88 | 1022.9 |
| 20260507075010 | -2 | 327 | 0.0 | 0.0 | 0.00 | 0.05 | 0.00 | 87 | 1022.9 |
| 20260507074538 | -2 | 327 | 0.0 | 0.0 | 0.00 | 0.05 | 0.00 | 87 | 1023.0 |
| 20260507074008 | -2 | 327 | 0.0 | 0.0 | 0.00 | 0.05 | 0.00 | 86 | 1022.9 |
| 20260507073510 | -2 | 327 | 0.0 | 1.6 | 0.00 | 0.05 | 0.00 | 85 | 1022.9 |
| 20260507073029 | -1 | 326 | 0.0 | 1.6 | 0.00 | 0.05 | 0.00 | 85 | 1022.9 |
| 20260507072510 | -1 | 328 | 0.0 | 1.6 | 0.00 | 0.05 | 0.00 | 86 | 1022.8 |
| 20260507072012 | -1 | 10 | 0.0 | 1.6 | 0.00 | 0.05 | 0.00 | 85 | 1022.8 |
| 20260507071532 | -1 | 10 | 0.0 | 1.6 | 0.00 | 0.05 | 0.00 | 85 | 1022.8 |
| 20260507071011 | -1 | 11 | 0.0 | 1.6 | 0.00 | 0.05 | 0.00 | 86 | 1022.9 |
| 20260507070507 | -1 | 11 | 0.0 | 1.6 | 0.00 | 0.05 | 0.00 | 86 | 1022.9 |
| 20260507070021 | -1 | 11 | 0.0 | 1.6 | 0.00 | 0.05 | 0.00 | 85 | 1022.8 |
| 20260507065508 | -1 | 344 | 0.0 | 1.6 | 0.00 | 0.05 | 0.00 | 86 | 1022.8 |
| 20260507065009 | -1 | 344 | 0.0 | 1.6 | 0.00 | 0.05 | 0.00 | 86 | 1022.8 |
| 20260507064525 | -1 | 358 | 0.0 | 1.6 | 0.00 | 0.05 | 0.00 | 86 | 1022.8 |
| 20260507064008 | -1 | 358 | 0.0 | 1.6 | 0.00 | 0.05 | 0.00 | 86 | 1022.7 |
| 20260507063511 | -1 | 358 | 0.0 | 3.2 | 0.00 | 0.05 | 0.00 | 86 | 1022.6 |
| 20260507063006 | 0 | 358 | 0.0 | 3.2 | 0.00 | 0.05 | 0.00 | 86 | 1022.6 |
| 20260507062503 | 0 | 339 | 0.0 | 3.2 | 0.00 | 0.05 | 0.00 | 85 | 1022.6 |
| 20260507062004 | 0 | 346 | 0.0 | 1.6 | 0.00 | 0.05 | 0.00 | 85 | 1022.6 |
| 20260507061512 | 0 | 37 | 0.0 | 1.6 | 0.00 | 0.05 | 0.00 | 85 | 1022.6 |
| 20260507061004 | 0 | 37 | 0.0 | 1.6 | 0.00 | 0.05 | 0.00 | 85 | 1022.6 |
| 20260507060505 | 0 | 37 | 0.0 | 1.6 | 0.00 | 0.05 | 0.00 | 85 | 1022.5 |
| 20260507060016 | 0 | 37 | 0.0 | 1.6 | 0.00 | 0.05 | 0.00 | 87 | 1022.4 |
| 20260507055505 | 0 | 88 | 0.0 | 0.0 | 0.00 | 0.05 | 0.05 | 86 | 1022.5 |
| 20260507055004 | 0 | 88 | 0.0 | 1.6 | 0.00 | 0.05 | 0.05 | 85 | 1022.4 |
| 20260507054521 | 0 | 88 | 0.0 | 1.6 | 0.00 | 0.05 | 0.05 | 85 | 1022.4 |
| 20260507054007 | 0 | 88 | 0.0 | 1.6 | 0.00 | 0.05 | 0.05 | 85 | 1022.4 |
| 20260507053508 | 0 | 108 | 0.0 | 0.0 | 0.00 | 0.05 | 0.05 | 84 | 1022.4 |
| 20260507053026 | 1 | 108 | 0.0 | 0.0 | 0.00 | 0.05 | 0.05 | 83 | 1022.3 |
| 20260507052503 | 1 | 108 | 0.0 | 1.6 | 0.00 | 0.05 | 0.05 | 84 | 1022.2 |
| 20260507052005 | 1 | 108 | 0.0 | 1.6 | 0.00 | 0.05 | 0.05 | 83 | 1022.3 |
| 20260507051506 | 1 | 108 | 0.0 | 1.6 | 0.00 | 0.05 | 0.05 | 83 | 1022.2 |
| 20260507051002 | 1 | 108 | 0.0 | 1.6 | 0.00 | 0.05 | 0.05 | 82 | 1022.0 |
| 20260507050503 | 1 | 108 | 0.0 | 1.6 | 0.00 | 0.05 | 0.05 | 81 | 1021.9 |
| 20260507050008 | 1 | 146 | 0.0 | 1.6 | 0.00 | 0.08 | 0.05 | 81 | 1021.9 |
| 20260507045503 | 2 | 143 | 0.0 | 1.6 | 0.00 | 0.08 | 0.05 | 80 | 1021.8 |
| 20260507045003 | 2 | 128 | 0.0 | 1.6 | 0.00 | 0.08 | 0.05 | 80 | 1021.8 |
| 20260507044514 | 2 | 127 | 0.0 | 1.6 | 0.00 | 0.08 | 0.05 | 80 | 1021.7 |
| 20260507044009 | 2 | 235 | 0.0 | 1.6 | 0.00 | 0.08 | 0.05 | 78 | 1021.7 |
| 20260507043505 | 2 | 235 | 0.0 | 3.2 | 0.00 | 0.08 | 0.05 | 78 | 1021.6 |
| 20260507043018 | 2 | 297 | 0.0 | 3.2 | 0.00 | 0.08 | 0.05 | 76 | 1021.5 |
| 20260507042507 | 2 | 140 | 0.0 | 3.2 | 0.00 | 0.08 | 0.05 | 73 | 1021.5 |
| 20260507042012 | 2 | 140 | 0.0 | 3.2 | 0.00 | 0.08 | 0.05 | 65 | 1021.4 |
| 20260507041522 | 3 | 140 | 0.0 | 3.2 | 0.00 | 0.08 | 0.05 | 62 | 1021.3 |
| 20260507041008 | 3 | 70 | 0.0 | 1.6 | 0.00 | 0.08 | 0.05 | 60 | 1021.1 |
| 20260507040503 | 3 | 359 | 0.0 | 1.6 | 0.00 | 0.08 | 0.05 | 58 | 1020.9 |
| 20260507040005 | 4 | 359 | 0.0 | 1.6 | 0.00 | 0.08 | 0.05 | 57 | 1020.7 |
| 20260507035503 | 4 | 359 | 0.0 | 0.0 | 0.00 | 0.08 | 0.05 | 56 | 1020.6 |
| 20260507035003 | 5 | 359 | 0.0 | 0.0 | 0.00 | 0.08 | 0.05 | 55 | 1020.5 |
| 20260507034510 | 5 | 359 | 0.0 | 0.0 | 0.00 | 0.08 | 0.05 | 53 | 1020.4 |
| 20260507034009 | 5 | 359 | 0.0 | 0.0 | 0.00 | 0.08 | 0.05 | 52 | 1020.3 |
| 20260507033509 | 5 | 359 | 0.0 | 0.0 | 0.00 | 0.08 | 0.05 | 51 | 1020.1 |
| 20260507033019 | 6 | 359 | 0.0 | 0.0 | 0.00 | 0.08 | 0.05 | 49 | 1020.1 |
| 20260507032505 | 6 | 359 | 0.0 | 0.0 | 0.00 | 0.08 | 0.05 | 48 | 1020.0 |
| 20260507032006 | 7 | 359 | 0.0 | 1.6 | 0.00 | 0.08 | 0.05 | 46 | 1020.0 |
| 20260507031520 | 7 | 359 | 0.0 | 1.6 | 0.00 | 0.08 | 0.05 | 46 | 1019.9 |
| 20260507031007 | 7 | 359 | 0.0 | 1.6 | 0.00 | 0.08 | 0.05 | 45 | 1019.9 |
| 20260507030513 | 7 | 359 | 0.0 | 1.6 | 0.00 | 0.08 | 0.05 | 45 | 1019.7 |
| 20260507030026 | 8 | 357 | 0.0 | 1.6 | 0.00 | 0.08 | 0.05 | 44 | 1019.6 |
| 20260507025510 | 8 | 358 | 0.0 | 4.8 | 0.00 | 0.08 | 0.05 | 43 | 1019.4 |
| 20260507025011 | 8 | 346 | 0.0 | 4.8 | 0.00 | 0.08 | 0.05 | 42 | 1019.3 |
| 20260507024508 | 8 | 342 | 0.0 | 4.8 | 0.00 | 0.08 | 0.05 | 42 | 1019.1 |
| 20260507024003 | 9 | 268 | 0.0 | 12.9 | 0.00 | 0.08 | 0.05 | 41 | 1019.1 |
| 20260507023502 | 9 | 281 | 0.0 | 12.9 | 0.00 | 0.08 | 0.05 | 40 | 1018.9 |
| 20260507023013 | 9 | 225 | 1.6 | 9.7 | 0.00 | 0.08 | 0.05 | 40 | 1018.8 |
| 20260507022504 | 9 | 272 | 1.6 | 9.7 | 0.00 | 0.08 | 0.05 | 39 | 1018.7 |
| 20260507022006 | 10 | 58 | 0.0 | 6.4 | 0.00 | 0.08 | 0.05 | 40 | 1018.6 |
| 20260507021517 | 10 | 277 | 0.0 | 6.4 | 0.00 | 0.08 | 0.05 | 41 | 1018.5 |
| 20260507021009 | 10 | 126 | 0.0 | 8.0 | 0.00 | 0.08 | 0.05 | 40 | 1018.3 |
| 20260507020508 | 10 | 276 | 1.6 | 8.0 | 0.00 | 0.08 | 0.05 | 41 | 1018.2 |
| 20260507020021 | 10 | 281 | 1.6 | 8.0 | 0.00 | 0.08 | 0.05 | 42 | 1018.2 |
| 20260507015511 | 10 | 38 | 0.0 | 3.2 | 0.00 | 0.08 | 0.05 | 43 | 1018.1 |
| 20260507015007 | 10 | 235 | 0.0 | 3.2 | 0.00 | 0.08 | 0.05 | 43 | 1018.0 |
| 20260507014535 | 10 | 337 | 0.0 | 12.9 | 0.00 | 0.08 | 0.05 | 45 | 1018.1 |
| 20260507014009 | 9 | 147 | 1.6 | 25.7 | 0.00 | 0.08 | 0.05 | 45 | 1018.1 |
| 20260507013509 | 9 | 142 | 3.2 | 25.7 | 0.00 | 0.08 | 0.05 | 48 | 1018.2 |
| 20260507013028 | 8 | 281 | 1.6 | 8.0 | 0.00 | 0.08 | 0.05 | 59 | 1018.1 |
| 20260507012504 | 8 | 50 | 0.0 | 1.6 | 0.00 | 0.08 | 0.05 | 58 | 1018.1 |
| 20260507012004 | 8 | 43 | 0.0 | 1.6 | 0.00 | 0.08 | 0.05 | 58 | 1018.1 |
| 20260507011526 | 8 | 106 | 0.0 | 1.6 | 0.00 | 0.08 | 0.05 | 59 | 1017.8 |
| 20260507011003 | 8 | 106 | 0.0 | 3.2 | 0.00 | 0.08 | 0.05 | 59 | 1017.6 |
| 20260507010507 | 8 | 350 | 0.0 | 3.2 | 0.00 | 0.08 | 0.05 | 61 | 1017.5 |
| 20260507010019 | 8 | 4 | 0.0 | 3.2 | 0.00 | 0.08 | 0.05 | 61 | 1017.4 |
| 20260507005507 | 8 | 1 | 0.0 | 4.8 | 0.00 | 0.08 | 0.05 | 62 | 1017.4 |
| 20260507005008 | 8 | 340 | 1.6 | 4.8 | 0.00 | 0.08 | 0.05 | 61 | 1017.5 |
| 20260507004521 | 8 | 340 | 1.6 | 4.8 | 0.03 | 0.08 | 0.05 | 61 | 1017.4 |
| 20260507004007 | 8 | 360 | 0.0 | 1.6 | 0.03 | 0.08 | 0.05 | 61 | 1017.3 |
| 20260507003512 | 8 | 349 | 0.0 | 3.2 | 0.03 | 0.08 | 0.05 | 63 | 1017.4 |
| 20260507003024 | 8 | 358 | 0.0 | 3.2 | 0.03 | 0.08 | 0.05 | 63 | 1017.2 |
| 20260507002506 | 8 | 355 | 0.0 | 1.6 | 0.03 | 0.08 | 0.05 | 62 | 1017.1 |
| 20260507002014 | 8 | 355 | 0.0 | 1.6 | 0.03 | 0.08 | 0.05 | 62 | 1017.0 |
| 20260507001535 | 8 | 68 | 0.0 | 1.6 | 0.03 | 0.08 | 0.05 | 64 | 1017.1 |
| 20260507001004 | 8 | 24 | 0.0 | 3.2 | 0.03 | 0.08 | 0.05 | 65 | 1017.1 |
| 20260507000505 | 8 | 13 | 0.0 | 4.8 | 0.03 | 0.08 | 0.05 | 66 | 1017.2 |
| 20260507000016 | 8 | 276 | 0.0 | 4.8 | 0.03 | 0.08 | 0.05 | 67 | 1017.2 |
| 20260506235507 | 8 | 149 | 0.0 | 9.7 | 0.03 | 0.08 | 0.05 | 69 | 1017.3 |
| 20260506235007 | 8 | 62 | 1.6 | 12.9 | 0.03 | 0.08 | 0.05 | 65 | 1017.4 |
| 20260506234522 | 10 | 267 | 4.8 | 12.9 | 0.00 | 0.05 | 0.03 | 58 | 1017.8 |
| 20260506234008 | 11 | 317 | 3.2 | 11.3 | 0.00 | 0.05 | 0.03 | 50 | 1017.5 |
| 20260506233507 | 11 | 285 | 3.2 | 8.0 | 0.00 | 0.05 | 0.03 | 42 | 1017.0 |
| 20260506233024 | 11 | 263 | 1.6 | 8.0 | 0.00 | 0.05 | 0.03 | 42 | 1016.7 |
| 20260506232510 | 12 | 305 | 3.2 | 8.0 | 0.00 | 0.05 | 0.03 | 42 | 1016.5 |
| 20260506232010 | 11 | 266 | 1.6 | 4.8 | 0.00 | 0.05 | 0.03 | 44 | 1016.4 |
| 20260506231525 | 11 | 65 | 0.0 | 11.3 | 0.03 | 0.05 | 0.03 | 45 | 1016.3 |
| 20260506231014 | 11 | 337 | 1.6 | 11.3 | 0.03 | 0.05 | 0.03 | 47 | 1016.2 |
| 20260506230511 | 11 | 6 | 3.2 | 12.9 | 0.03 | 0.05 | 0.03 | 48 | 1016.3 |
| 20260506230029 | 11 | 226 | 3.2 | 17.7 | 0.03 | 0.05 | 0.03 | 49 | 1016.3 |
| 20260506225510 | 11 | 350 | 3.2 | 17.7 | 0.03 | 0.05 | 0.03 | 49 | 1016.3 |
| 20260506225006 | 12 | 342 | 8.0 | 16.1 | 0.03 | 0.05 | 0.03 | 45 | 1016.2 |
| 20260506224518 | 12 | 346 | 1.6 | 14.5 | 0.03 | 0.05 | 0.03 | 44 | 1015.8 |
| 20260506224012 | 12 | 246 | 1.6 | 14.5 | 0.03 | 0.05 | 0.03 | 43 | 1015.5 |
| 20260506223507 | 12 | 217 | 1.6 | 11.3 | 0.03 | 0.05 | 0.03 | 44 | 1015.5 |
| 20260506223024 | 12 | 127 | 3.2 | 11.3 | 0.03 | 0.05 | 0.03 | 44 | 1015.6 |
| 20260506222506 | 11 | 356 | 1.6 | 17.7 | 0.03 | 0.05 | 0.03 | 50 | 1015.5 |
| 20260506222009 | 12 | 291 | 1.6 | 17.7 | 0.03 | 0.05 | 0.03 | 51 | 1015.5 |
| 20260506221525 | 13 | 319 | 4.8 | 11.3 | 0.00 | 0.03 | 0.00 | 36 | 1015.7 |
| 20260506221009 | 14 | 328 | 4.8 | 11.3 | 0.00 | 0.03 | 0.00 | 33 | 1014.9 |
| 20260506220510 | 15 | 22 | 3.2 | 11.3 | 0.00 | 0.03 | 0.00 | 32 | 1014.8 |
| 20260506220034 | 15 | 41 | 3.2 | 14.5 | 0.00 | 0.03 | 0.00 | 32 | 1014.8 |
| 20260506215507 | 15 | 58 | 3.2 | 14.5 | 0.00 | 0.03 | 0.00 | 33 | 1015.0 |
| 20260506215011 | 15 | 304 | 3.2 | 22.5 | 0.00 | 0.03 | 0.00 | 34 | 1015.0 |
| 20260506214527 | 15 | 39 | 3.2 | 22.5 | 0.00 | 0.03 | 0.00 | 34 | 1015.2 |
| 20260506214012 | 16 | 274 | 3.2 | 16.1 | 0.00 | 0.03 | 0.00 | 29 | 1015.1 |
| 20260506213506 | 17 | 145 | 4.8 | 14.5 | 0.00 | 0.03 | 0.00 | 27 | 1015.1 |
| 20260506213019 | 17 | 326 | 3.2 | 14.5 | 0.00 | 0.03 | 0.00 | 28 | 1014.9 |
| 20260506212502 | 17 | 279 | 4.8 | 12.9 | 0.00 | 0.03 | 0.00 | 27 | 1014.8 |